Bryce Canyon, UT

10:37 AM MST on December 11, 2019 (GMT -0700)
Bryce Canyon

Weather History for KBCE - August, 2019

Change the Weather History Date:

Monday, August 12, 2019

  Actual Average Record
Temperature  
Mean Temperature 60 °F -  
Max Temperature 79 °F 76 °F 89 °F (1960)
Min Temperature 41 °F 46 °F 33 °F (2010)
Degree Days  
Heating Degree Days 5    
Growing Degree Days 10 (Base 50)    
Moisture  
Dew Point 36 °F    
Average Humidity 44    
Maximum Humidity 82    
Minimum Humidity 19    
Precipitation  
Precipitation 0.00 in - - ()
Sea Level Pressure  
Sea Level Pressure 30.02 in    
Wind  
Wind Speed 8 mph (WSW)    
Max Wind Speed 15 mph    
Max Gust Speed 23 mph    
Visibility 10 miles    
Events      
Averages and records for this station are not official NWS values.
T = Trace of Precipitation, MM = Missing Value Source: NWS Daily Summary

Daily Weather History Graph

Daily Weather History Graph

Search for Another Location

Airport or City:

Astronomy

Aug. 12, 2019 Rise Set
Actual Time 6:41 AM MDT 8:25 PM MDT
Civil Twilight 6:13 AM MDT 8:53 PM MDT
Nautical Twilight 5:39 AM MDT 9:27 PM MDT
Astronomical Twilight 5:02 AM MDT 10:03 PM MDT
Moon 6:55 PM MDT (8/12) 3:56 AM MDT (8/12)
Length of Visible Light 14h 39m
Length of Day
13h 43m
Waxing Gibbous, 93% of the Moon is Illuminated
Aug 12
Waxing Gibbous
Aug 15
Full
Aug 23
Last Quarter
Aug 30
New
Sep 5
First Quarter

Hourly Weather History & Observations

Time (MDT) Temp. Windchill Dew Point Humidity Pressure Visibility Wind Dir Wind Speed Gust Speed Precip Events Conditions
12:53 AM 51.1 °F - 36.0 °F 56% 29.99 in 10.0 mi West 6.9 mph - N/A   Clear
1:53 AM 48.0 °F - 37.0 °F 66% 29.99 in 10.0 mi West 6.9 mph - N/A   Clear
2:53 AM 48.9 °F - 37.0 °F 64% 29.99 in 10.0 mi WNW 3.5 mph - N/A   Clear
3:53 AM 46.9 °F - 36.0 °F 66% 30.00 in 10.0 mi West 6.9 mph - N/A   Clear
4:53 AM 41.0 °F 38.0 °F 36.0 °F 82% 30.02 in 10.0 mi WSW 4.6 mph - N/A   Clear
5:53 AM 41.0 °F 36.4 °F 35.1 °F 79% 30.04 in 10.0 mi West 6.9 mph - N/A   Clear
6:53 AM 42.1 °F 38.4 °F 34.0 °F 73% 30.06 in 10.0 mi West 5.8 mph - N/A   Clear
7:53 AM 48.9 °F - 36.0 °F 61% 30.06 in 10.0 mi West 6.9 mph - N/A   Clear
8:53 AM 60.1 °F - 35.1 °F 39% 30.06 in 10.0 mi West 5.8 mph - N/A   Clear
9:53 AM 68.0 °F - 35.1 °F 30% 30.05 in 10.0 mi WSW 12.7 mph - N/A   Clear
10:53 AM 70.0 °F - 34.0 °F 27% 30.07 in 10.0 mi WSW 12.7 mph - N/A   Clear
11:53 AM 73.0 °F - 32.0 °F 22% 30.06 in 10.0 mi SW 15.0 mph 18.4 mph N/A   Clear
12:53 PM 75.9 °F - 37.0 °F 24% 30.03 in 10.0 mi WSW 15.0 mph 20.7 mph N/A   Clear
1:53 PM 75.9 °F - 36.0 °F 23% 30.03 in 10.0 mi Variable 5.8 mph 23.0 mph N/A   Clear
2:53 PM 77.0 °F - 36.0 °F 23% 30.01 in 10.0 mi SSW 13.8 mph 23.0 mph N/A   Clear
3:53 PM 78.1 °F - 34.0 °F 20% 29.99 in 10.0 mi SW 5.8 mph - N/A   Clear
4:53 PM 79.0 °F - 33.1 °F 19% 30.01 in 10.0 mi SW 11.5 mph 20.7 mph N/A   Clear
5:53 PM 78.1 °F - 32.0 °F 19% 29.99 in 10.0 mi South 11.5 mph - N/A   Clear
6:53 PM 77.0 °F - 33.1 °F 20% 29.99 in 10.0 mi SW 12.7 mph - N/A   Clear
7:53 PM 72.0 °F - 39.0 °F 30% 29.98 in 10.0 mi SW 5.8 mph - N/A   Clear
8:53 PM 62.1 °F - 39.0 °F 43% 29.99 in 10.0 mi West 6.9 mph - N/A   Clear
9:53 PM 55.9 °F - 37.0 °F 49% 30.01 in 10.0 mi West 8.1 mph - N/A   Clear
10:53 PM 54.0 °F - 39.0 °F 57% 30.02 in 10.0 mi WSW 4.6 mph - N/A   Clear
11:53 PM 51.1 °F - 39.0 °F 63% 30.03 in 10.0 mi West 10.4 mph - N/A   Clear